Time,TemperatureF,DewpointF,PressureIn,WindDirection,WindDirectionDegrees,WindSpeedMPH,WindSpeedGustMPH,Humidity,HourlyPrecipIn,Conditions,Clouds,dailyrainin,SoftwareType,DateUTC
2013-03-31 00:01:00,46.5,41.0,29.94,WNW,286,1.0,4.0,81,0.00,,---,0.34,VWS V14.01,2013-03-31 05:01:00,
2013-03-31 00:06:00,46.7,41.5,29.94,WNW,286,3.0,3.0,82,0.00,,---,0.00,VWS V14.01,2013-03-31 05:06:00,
2013-03-31 00:12:00,46.9,41.4,29.94,WNW,286,2.0,3.0,81,0.00,,---,0.00,VWS V14.01,2013-03-31 05:12:00,
2013-03-31 00:18:00,46.7,41.2,29.94,WNW,286,1.0,3.0,81,0.00,,---,0.00,VWS V14.01,2013-03-31 05:18:00,
2013-03-31 00:24:00,46.8,41.6,29.94,West,281,2.0,4.0,82,0.00,,---,0.00,VWS V14.01,2013-03-31 05:24:00,
2013-03-31 00:30:00,46.8,41.6,29.94,West,261,2.0,4.0,82,0.00,,---,0.00,VWS V14.01,2013-03-31 05:30:00,
2013-03-31 00:38:00,46.7,41.5,29.94,WSW,244,1.0,4.0,82,0.00,,---,0.00,VWS V14.01,2013-03-31 05:38:00,
2013-03-31 00:44:00,46.6,41.4,29.94,WSW,250,2.0,4.0,82,0.00,,---,0.00,VWS V14.01,2013-03-31 05:44:00,
2013-03-31 00:50:00,46.6,41.4,29.94,WNW,291,3.0,4.0,82,0.00,,---,0.00,VWS V14.01,2013-03-31 05:50:00,
2013-03-31 00:56:00,46.6,41.4,29.94,WNW,291,0.0,4.0,82,0.00,,---,0.00,VWS V14.01,2013-03-31 05:56:00,
2013-03-31 01:02:00,46.6,41.7,29.94,West,270,2.0,2.0,83,0.00,,---,0.00,VWS V14.01,2013-03-31 06:02:00,
2013-03-31 01:08:00,46.5,41.6,29.94,West,270,2.0,2.0,83,0.00,,---,0.00,VWS V14.01,2013-03-31 06:08:00,
2013-03-31 01:14:00,46.5,41.6,29.94,West,269,0.0,2.0,83,0.00,,---,0.00,VWS V14.01,2013-03-31 06:14:00,
2013-03-31 01:21:00,46.5,41.6,29.94,West,270,0.0,2.0,83,0.00,,---,0.00,VWS V14.01,2013-03-31 06:21:00,
2013-03-31 01:27:00,46.4,41.2,29.94,West,270,1.0,3.0,82,0.00,,---,0.00,VWS V14.01,2013-03-31 06:27:00,
2013-03-31 01:33:00,46.3,41.1,29.94,WNW,297,1.0,4.0,82,0.00,,---,0.00,VWS V14.01,2013-03-31 06:33:00,
2013-03-31 01:39:00,46.3,41.4,29.94,WNW,297,1.0,4.0,83,0.00,,---,0.00,VWS V14.01,2013-03-31 06:39:00,
2013-03-31 01:45:00,46.4,41.5,29.94,WNW,284,1.0,4.0,83,0.00,,---,0.00,VWS V14.01,2013-03-31 06:45:00,
2013-03-31 01:53:00,46.4,41.5,29.94,West,279,0.0,4.0,83,0.00,,---,0.00,VWS V14.01,2013-03-31 06:53:00,
2013-03-31 01:59:00,46.4,41.2,29.94,West,279,0.0,4.0,82,0.00,,---,0.00,VWS V14.01,2013-03-31 06:59:00,
2013-03-31 02:05:00,46.2,41.0,29.94,West,279,0.0,1.0,82,0.00,,---,0.00,VWS V14.01,2013-03-31 07:05:00,
2013-03-31 02:11:00,46.0,41.1,29.94,West,279,2.0,3.0,83,0.00,,---,0.00,VWS V14.01,2013-03-31 07:11:00,
2013-03-31 02:17:00,45.7,40.8,29.94,West,279,0.0,3.0,83,0.00,,---,0.00,VWS V14.01,2013-03-31 07:17:00,
2013-03-31 02:23:00,45.5,40.7,29.94,West,280,0.0,3.0,83,0.00,,---,0.00,VWS V14.01,2013-03-31 07:23:00,
2013-03-31 02:29:00,45.3,40.5,29.94,West,279,1.0,3.0,83,0.00,,---,0.00,VWS V14.01,2013-03-31 07:29:00,
2013-03-31 02:36:00,45.1,40.2,29.94,West,279,2.0,3.0,83,0.00,,---,0.00,VWS V14.01,2013-03-31 07:36:00,
2013-03-31 02:42:00,45.0,40.2,29.94,West,279,1.0,3.0,83,0.00,,---,0.00,VWS V14.01,2013-03-31 07:42:00,
2013-03-31 02:48:00,44.9,40.1,29.94,West,279,2.0,3.0,83,0.00,,---,0.00,VWS V14.01,2013-03-31 07:48:00,
2013-03-31 02:54:00,44.7,39.9,29.94,West,279,1.0,3.0,83,0.00,,---,0.00,VWS V14.01,2013-03-31 07:54:00,
2013-03-31 03:00:00,44.6,40.1,29.94,West,277,2.0,3.0,84,0.00,,---,0.00,VWS V14.01,2013-03-31 08:00:00,
2013-03-31 03:08:00,44.4,39.9,29.94,West,277,1.0,2.0,84,0.00,,---,0.00,VWS V14.01,2013-03-31 08:08:00,
2013-03-31 03:14:00,44.3,39.8,29.93,West,277,0.0,2.0,84,0.00,,---,0.00,VWS V14.01,2013-03-31 08:14:00,
2013-03-31 03:20:00,44.0,39.5,29.93,West,277,0.0,2.0,84,0.00,,---,0.00,VWS V14.01,2013-03-31 08:20:00,
2013-03-31 03:26:00,43.9,39.4,29.93,West,277,1.0,2.0,84,0.00,,---,0.00,VWS V14.01,2013-03-31 08:26:00,
2013-03-31 03:32:00,43.9,39.4,29.93,WNW,298,0.0,2.0,84,0.00,,---,0.00,VWS V14.01,2013-03-31 08:32:00,
2013-03-31 03:38:00,43.8,39.3,29.93,WNW,287,3.0,4.0,84,0.00,,---,0.00,VWS V14.01,2013-03-31 08:38:00,
2013-03-31 03:44:00,43.6,39.1,29.93,WNW,288,1.0,4.0,84,0.00,,---,0.00,VWS V14.01,2013-03-31 08:44:00,
2013-03-31 03:50:00,43.5,39.0,29.93,WNW,287,0.0,4.0,84,0.00,,---,0.00,VWS V14.01,2013-03-31 08:50:00,
2013-03-31 03:56:00,43.3,39.1,29.93,WSW,248,1.0,4.0,85,0.00,,---,0.00,VWS V14.01,2013-03-31 08:56:00,
2013-03-31 04:02:00,43.3,39.1,29.93,WSW,249,2.0,2.0,85,0.00,,---,0.00,VWS V14.01,2013-03-31 09:02:00,
2013-03-31 04:08:00,43.5,39.3,29.92,WSW,249,1.0,2.0,85,0.00,,---,0.00,VWS V14.01,2013-03-31 09:08:00,
2013-03-31 04:15:00,43.5,39.0,29.92,WSW,249,1.0,2.0,84,0.00,,---,0.00,VWS V14.01,2013-03-31 09:15:00,
2013-03-31 04:21:00,43.2,38.7,29.92,WSW,249,1.0,2.0,84,0.00,,---,0.00,VWS V14.01,2013-03-31 09:21:00,
2013-03-31 04:27:00,42.8,38.3,29.92,WSW,257,1.0,3.0,84,0.00,,---,0.00,VWS V14.01,2013-03-31 09:27:00,
2013-03-31 04:33:00,42.7,38.5,29.92,WSW,257,1.0,2.0,85,0.00,,---,0.00,VWS V14.01,2013-03-31 09:33:00,
2013-03-31 04:39:00,42.7,38.5,29.92,West,264,0.0,3.0,85,0.00,,---,0.00,VWS V14.01,2013-03-31 09:39:00,
2013-03-31 04:45:00,42.7,38.5,29.92,West,265,2.0,3.0,85,0.00,,---,0.00,VWS V14.01,2013-03-31 09:45:00,
2013-03-31 04:51:00,42.7,38.5,29.92,West,268,0.0,4.0,85,0.00,,---,0.00,VWS V14.01,2013-03-31 09:51:00,
2013-03-31 04:57:00,42.5,38.6,29.92,WNW,292,3.0,5.0,86,0.00,,---,0.00,VWS V14.01,2013-03-31 09:57:00,
2013-03-31 05:03:00,42.5,38.6,29.92,WNW,284,4.0,5.0,86,0.00,,---,0.00,VWS V14.01,2013-03-31 10:03:00,
2013-03-31 05:09:00,42.5,38.6,29.93,WNW,288,5.0,5.0,86,0.00,,---,0.00,VWS V14.01,2013-03-31 10:09:00,
2013-03-31 05:15:00,42.4,38.5,29.93,WNW,293,4.0,6.0,86,0.00,,---,0.00,VWS V14.01,2013-03-31 10:15:00,
2013-03-31 05:22:00,42.3,38.4,29.93,WNW,288,1.0,6.0,86,0.00,,---,0.00,VWS V14.01,2013-03-31 10:22:00,
2013-03-31 05:28:00,42.0,38.1,29.93,WNW,289,0.0,6.0,86,0.00,,---,0.00,VWS V14.01,2013-03-31 10:28:00,
2013-03-31 05:34:00,41.8,38.2,29.93,WNW,289,1.0,3.0,87,0.00,,---,0.00,VWS V14.01,2013-03-31 10:34:00,
2013-03-31 05:40:00,41.5,37.9,29.93,WNW,294,3.0,4.0,87,0.00,,---,0.00,VWS V14.01,2013-03-31 10:40:00,
2013-03-31 05:46:00,41.1,37.5,29.93,WNW,294,0.0,4.0,87,0.00,,---,0.00,VWS V14.01,2013-03-31 10:46:00,
2013-03-31 05:52:00,40.9,37.3,29.93,WNW,294,0.0,4.0,87,0.00,,---,0.00,VWS V14.01,2013-03-31 10:52:00,
2013-03-31 05:58:00,40.5,37.2,29.94,WNW,294,1.0,4.0,88,0.00,,---,0.00,VWS V14.01,2013-03-31 10:58:00,
2013-03-31 06:04:00,40.2,36.9,29.94,WNW,294,1.0,2.0,88,0.00,,---,0.00,VWS V14.01,2013-03-31 11:04:00,
2013-03-31 06:10:00,39.9,36.6,29.94,WNW,294,0.0,3.0,88,0.00,,---,0.00,VWS V14.01,2013-03-31 11:10:00,
2013-03-31 06:17:00,39.7,36.7,29.94,WNW,288,2.0,4.0,89,0.00,,---,0.00,VWS V14.01,2013-03-31 11:17:00,
2013-03-31 06:23:00,39.5,36.5,29.94,WNW,302,2.0,5.0,89,0.00,,---,0.00,VWS V14.01,2013-03-31 11:23:00,
2013-03-31 06:29:00,39.4,36.4,29.94,WNW,287,1.0,5.0,89,0.00,,---,0.00,VWS V14.01,2013-03-31 11:29:00,
2013-03-31 06:35:00,39.2,36.2,29.94,WNW,302,3.0,5.0,89,0.00,,---,0.00,VWS V14.01,2013-03-31 11:35:00,
2013-03-31 06:41:00,39.1,36.4,29.94,WNW,290,2.0,5.0,90,0.00,,---,0.00,VWS V14.01,2013-03-31 11:41:00,
2013-03-31 06:47:00,38.9,36.2,29.94,NW,311,3.0,6.0,90,0.00,,---,0.00,VWS V14.01,2013-03-31 11:47:00,
2013-03-31 06:53:00,38.7,36.0,29.94,NW,311,1.0,6.0,90,0.00,,---,0.00,VWS V14.01,2013-03-31 11:53:00,
2013-03-31 06:59:00,38.6,35.9,29.94,NW,311,3.0,6.0,90,0.00,,---,0.00,VWS V14.01,2013-03-31 11:59:00,
2013-03-31 07:05:00,38.4,35.7,29.94,NW,310,3.0,3.0,90,0.00,,---,0.00,VWS V14.01,2013-03-31 12:05:00,
2013-03-31 07:11:00,38.2,35.5,29.94,WNW,294,1.0,4.0,90,0.00,,---,0.00,VWS V14.01,2013-03-31 12:11:00,
2013-03-31 07:17:00,38.0,35.3,29.95,WNW,296,3.0,6.0,90,0.00,,---,0.00,VWS V14.01,2013-03-31 12:17:00,
2013-03-31 07:23:00,37.9,35.2,29.95,WNW,288,4.0,6.0,90,0.00,,---,0.00,VWS V14.01,2013-03-31 12:23:00,
2013-03-31 07:29:00,37.8,35.1,29.96,WNW,291,4.0,6.0,90,0.00,,---,0.00,VWS V14.01,2013-03-31 12:29:00,
2013-03-31 07:36:00,37.7,35.0,29.96,WNW,283,2.0,6.0,90,0.00,,---,0.00,VWS V14.01,2013-03-31 12:36:00,
2013-03-31 07:42:00,37.7,35.0,29.96,WNW,286,2.0,6.0,90,0.00,,---,0.00,VWS V14.01,2013-03-31 12:42:00,
2013-03-31 07:48:00,37.7,35.3,29.96,WNW,284,4.0,6.0,91,0.00,,---,0.00,VWS V14.01,2013-03-31 12:48:00,
2013-03-31 07:54:00,37.8,35.4,29.97,WNW,283,4.0,6.0,91,0.00,,---,0.00,VWS V14.01,2013-03-31 12:54:00,
2013-03-31 08:00:00,37.9,35.5,29.97,NW,306,1.0,8.0,91,0.00,,---,0.00,VWS V14.01,2013-03-31 13:00:00,
2013-03-31 08:08:00,38.4,36.0,29.97,WNW,285,2.0,6.0,91,0.00,,---,0.00,VWS V14.01,2013-03-31 13:08:00,
2013-03-31 08:14:00,38.8,36.4,29.97,West,281,4.0,7.0,91,0.00,,---,0.00,VWS V14.01,2013-03-31 13:14:00,
2013-03-31 08:20:00,39.2,36.8,29.97,NW,305,2.0,10.0,91,0.00,,---,0.00,VWS V14.01,2013-03-31 13:20:00,
2013-03-31 08:26:00,39.7,37.3,29.97,NW,307,3.0,10.0,91,0.00,,---,0.00,VWS V14.01,2013-03-31 13:26:00,
2013-03-31 08:33:00,40.3,37.9,29.98,WNW,286,6.0,6.0,91,0.00,,---,0.00,VWS V14.01,2013-03-31 13:33:00,
2013-03-31 08:39:00,40.8,38.1,29.98,West,281,4.0,8.0,90,0.00,,---,0.00,VWS V14.01,2013-03-31 13:39:00,
2013-03-31 08:45:00,41.1,38.4,29.97,NW,313,6.0,8.0,90,0.00,,---,0.00,VWS V14.01,2013-03-31 13:45:00,
2013-03-31 08:51:00,41.8,38.8,29.98,NNW,346,5.0,9.0,89,0.00,,---,0.00,VWS V14.01,2013-03-31 13:51:00,
2013-03-31 08:59:00,42.5,40.3,29.98,NW,326,8.0,10.0,92,0.00,,---,0.00,VWS V14.01,2013-03-31 13:59:00,
2013-03-31 09:05:00,43.0,39.4,29.98,WNW,302,5.0,8.0,87,0.00,,---,0.00,VWS V14.01,2013-03-31 14:05:00,
2013-03-31 09:11:00,43.5,39.3,29.98,West,276,3.0,11.0,85,0.00,,---,0.00,VWS V14.01,2013-03-31 14:11:00,
2013-03-31 09:17:00,43.8,39.3,29.98,NW,324,12.0,12.0,84,0.00,,---,0.00,VWS V14.01,2013-03-31 14:17:00,
2013-03-31 09:23:00,44.1,39.3,29.98,NW,311,8.0,16.0,83,0.00,,---,0.00,VWS V14.01,2013-03-31 14:23:00,
2013-03-31 09:29:00,44.8,40.0,29.98,WNW,302,5.0,16.0,83,0.00,,---,0.00,VWS V14.01,2013-03-31 14:29:00,
2013-03-31 09:36:00,45.6,40.1,29.98,NW,307,4.0,12.0,81,0.00,,---,0.00,VWS V14.01,2013-03-31 14:36:00,
2013-03-31 09:42:00,46.3,39.8,29.98,NW,311,9.0,12.0,78,0.00,,---,0.00,VWS V14.01,2013-03-31 14:42:00,
2013-03-31 09:48:00,46.9,39.7,29.98,WNW,284,6.0,12.0,76,0.00,,---,0.00,VWS V14.01,2013-03-31 14:48:00,
2013-03-31 09:54:00,47.6,40.4,29.98,NNW,329,10.0,15.0,76,0.00,,---,0.00,VWS V14.01,2013-03-31 14:54:00,
2013-03-31 10:00:00,48.1,39.9,29.98,NW,304,6.0,16.0,73,0.00,,---,0.00,VWS V14.01,2013-03-31 15:00:00,
2013-03-31 10:06:00,48.5,40.6,29.97,NW,326,10.0,13.0,74,0.00,,---,0.00,VWS V14.01,2013-03-31 15:06:00,
2013-03-31 10:12:00,49.1,40.1,29.98,NW,321,10.0,15.0,71,0.00,,---,0.00,VWS V14.01,2013-03-31 15:12:00,
2013-03-31 10:18:00,49.2,40.6,29.98,NW,311,6.0,18.0,72,0.00,,---,0.00,VWS V14.01,2013-03-31 15:18:00,
2013-03-31 10:24:00,49.2,39.5,29.98,NNW,333,7.0,19.0,69,0.00,,---,0.00,VWS V14.01,2013-03-31 15:24:00,
2013-03-31 10:31:00,49.3,39.6,29.98,NNW,331,7.0,19.0,69,0.00,,---,0.00,VWS V14.01,2013-03-31 15:31:00,
2013-03-31 10:37:00,49.3,39.6,29.98,NW,320,14.0,16.0,69,0.00,,---,0.00,VWS V14.01,2013-03-31 15:37:00,
2013-03-31 10:43:00,49.6,39.1,29.99,NW,315,12.0,22.0,67,0.00,,---,0.00,VWS V14.01,2013-03-31 15:43:00,
2013-03-31 10:50:00,50.3,40.9,29.99,WNW,300,16.0,22.0,70,0.00,,---,0.00,VWS V14.01,2013-03-31 15:50:00,
2013-03-31 10:56:00,50.9,40.3,29.99,WNW,300,10.0,22.0,67,0.00,,---,0.00,VWS V14.01,2013-03-31 15:56:00,
2013-03-31 11:01:00,50.9,39.6,29.99,NW,316,8.0,22.0,65,0.00,,---,0.00,VWS V14.01,2013-03-31 16:01:00,
2013-03-31 11:06:00,51.2,39.8,29.99,NW,313,16.0,16.0,65,0.00,,---,0.00,VWS V14.01,2013-03-31 16:06:00,
2013-03-31 11:12:00,51.8,38.8,29.99,NNW,329,11.0,17.0,61,0.00,,---,0.00,VWS V14.01,2013-03-31 16:12:00,
2013-03-31 11:18:00,52.3,38.4,29.99,West,280,11.0,19.0,59,0.00,,---,0.00,VWS V14.01,2013-03-31 16:18:00,
2013-03-31 11:24:00,52.4,37.6,29.99,NNW,334,15.0,20.0,57,0.00,,---,0.00,VWS V14.01,2013-03-31 16:24:00,
2013-03-31 11:30:00,52.4,37.2,29.99,NNW,327,14.0,20.0,56,0.00,,---,0.00,VWS V14.01,2013-03-31 16:30:00,
2013-03-31 11:36:00,53.2,37.5,29.99,North,350,11.0,17.0,55,0.00,,---,0.00,VWS V14.01,2013-03-31 16:36:00,
2013-03-31 11:44:00,53.1,36.9,29.99,West,276,7.0,18.0,54,0.00,,---,0.00,VWS V14.01,2013-03-31 16:44:00,
2013-03-31 11:50:00,53.9,38.1,29.99,WNW,296,10.0,18.0,55,0.00,,---,0.00,VWS V14.01,2013-03-31 16:50:00,
2013-03-31 11:56:00,54.2,37.9,29.99,NW,318,11.0,20.0,54,0.00,,---,0.00,VWS V14.01,2013-03-31 16:56:00,
2013-03-31 12:02:00,54.7,37.9,29.99,NNW,341,12.0,19.0,53,0.00,,---,0.00,VWS V14.01,2013-03-31 17:02:00,
2013-03-31 12:09:00,54.7,36.9,29.99,NNW,340,6.0,19.0,51,0.00,,---,0.00,VWS V14.01,2013-03-31 17:09:00,
2013-03-31 12:15:00,54.9,36.1,29.99,NW,325,13.0,19.0,49,0.00,,---,0.00,VWS V14.01,2013-03-31 17:15:00,
2013-03-31 12:23:00,54.7,35.4,29.98,NW,317,13.0,20.0,48,0.00,,---,0.00,VWS V14.01,2013-03-31 17:23:00,
2013-03-31 12:29:00,54.7,35.4,29.99,WNW,292,12.0,20.0,48,0.00,,---,0.00,VWS V14.01,2013-03-31 17:29:00,
2013-03-31 12:35:00,54.9,35.6,29.99,WNW,292,10.0,15.0,48,0.00,,---,0.00,VWS V14.01,2013-03-31 17:35:00,
2013-03-31 12:41:00,55.2,35.9,29.99,NW,324,14.0,17.0,48,0.00,,---,0.00,VWS V14.01,2013-03-31 17:41:00,
2013-03-31 12:47:00,55.7,35.3,29.99,NW,317,14.0,17.0,46,0.00,,---,0.00,VWS V14.01,2013-03-31 17:47:00,
2013-03-31 12:53:00,55.7,34.7,29.98,WNW,294,6.0,17.0,45,0.00,,---,0.00,VWS V14.01,2013-03-31 17:53:00,
2013-03-31 12:59:00,56.0,33.8,29.98,West,277,11.0,21.0,43,0.00,,---,0.00,VWS V14.01,2013-03-31 17:59:00,
2013-03-31 13:05:00,55.9,34.9,29.98,WNW,303,11.0,23.0,45,0.00,,---,0.00,VWS V14.01,2013-03-31 18:05:00,
2013-03-31 13:11:00,55.9,33.2,29.98,West,280,13.0,23.0,42,0.00,,---,0.00,VWS V14.01,2013-03-31 18:11:00,
2013-03-31 13:17:00,56.1,32.7,29.98,NW,307,10.0,23.0,41,0.00,,---,0.00,VWS V14.01,2013-03-31 18:17:00,
2013-03-31 13:24:00,56.8,32.8,29.98,WNW,284,10.0,23.0,40,0.00,,---,0.00,VWS V14.01,2013-03-31 18:24:00,
2013-03-31 13:30:00,57.0,33.5,29.98,NW,304,11.0,23.0,41,0.00,,---,0.00,VWS V14.01,2013-03-31 18:30:00,
2013-03-31 13:36:00,56.9,32.2,29.98,NW,318,24.0,28.0,39,0.00,,---,0.00,VWS V14.01,2013-03-31 18:36:00,
2013-03-31 13:42:00,56.8,32.1,29.98,WNW,300,5.0,28.0,39,0.00,,---,0.00,VWS V14.01,2013-03-31 18:42:00,
2013-03-31 13:48:00,57.1,31.8,29.98,WNW,301,8.0,28.0,38,0.00,,---,0.00,VWS V14.01,2013-03-31 18:48:00,
2013-03-31 13:54:00,57.2,31.8,29.98,WNW,302,10.0,28.0,38,0.00,,---,0.00,VWS V14.01,2013-03-31 18:54:00,
2013-03-31 14:00:00,57.5,30.8,29.98,WNW,298,13.0,28.0,36,0.00,,---,0.00,VWS V14.01,2013-03-31 19:00:00,
2013-03-31 14:06:00,57.5,32.1,29.98,NNW,330,14.0,20.0,38,0.00,,---,0.00,VWS V14.01,2013-03-31 19:06:00,
2013-03-31 14:12:00,57.7,33.6,29.98,WNW,292,16.0,20.0,40,0.00,,---,0.00,VWS V14.01,2013-03-31 19:12:00,
2013-03-31 14:18:00,58.2,30.7,29.98,NW,315,14.0,20.0,35,0.00,,---,0.00,VWS V14.01,2013-03-31 19:18:00,
2013-03-31 14:24:00,58.3,32.8,29.98,NNW,342,14.0,20.0,38,0.00,,---,0.00,VWS V14.01,2013-03-31 19:24:00,
2013-03-31 14:31:00,57.9,31.1,29.98,NW,317,9.0,22.0,36,0.00,,---,0.00,VWS V14.01,2013-03-31 19:31:00,
2013-03-31 14:37:00,57.8,31.0,29.97,WNW,298,5.0,18.0,36,0.00,,---,0.00,VWS V14.01,2013-03-31 19:37:00,
2013-03-31 14:43:00,58.2,31.4,29.97,NW,319,11.0,19.0,36,0.00,,---,0.00,VWS V14.01,2013-03-31 19:43:00,
2013-03-31 14:49:00,58.2,31.4,29.97,NNW,331,12.0,19.0,36,0.00,,---,0.00,VWS V14.01,2013-03-31 19:49:00,
2013-03-31 14:55:00,58.1,31.3,29.97,NW,315,9.0,19.0,36,0.00,,---,0.00,VWS V14.01,2013-03-31 19:55:00,
2013-03-31 15:01:00,58.2,31.4,29.97,NNW,334,11.0,20.0,36,0.00,,---,0.00,VWS V14.01,2013-03-31 20:01:00,
2013-03-31 15:07:00,57.7,31.0,29.97,NW,319,5.0,20.0,36,0.00,,---,0.00,VWS V14.01,2013-03-31 20:07:00,
2013-03-31 15:13:00,58.0,30.5,29.97,NW,322,9.0,20.0,35,0.00,,---,0.00,VWS V14.01,2013-03-31 20:13:00,
2013-03-31 15:19:00,58.1,29.9,29.96,WNW,300,8.0,20.0,34,0.00,,---,0.00,VWS V14.01,2013-03-31 20:19:00,
2013-03-31 15:26:00,58.5,31.0,29.96,WSW,257,9.0,20.0,35,0.00,,---,0.00,VWS V14.01,2013-03-31 20:26:00,
2013-03-31 15:31:00,59.0,30.0,29.96,West,281,17.0,20.0,33,0.00,,---,0.00,VWS V14.01,2013-03-31 20:31:00,
2013-03-31 15:36:00,57.7,30.3,29.95,WNW,284,11.0,20.0,35,0.00,,---,0.00,VWS V14.01,2013-03-31 20:36:00,
2013-03-31 15:42:00,57.9,30.4,29.95,WNW,300,12.0,20.0,35,0.00,,---,0.00,VWS V14.01,2013-03-31 20:42:00,
2013-03-31 15:48:00,58.6,31.0,29.95,NNW,331,13.0,20.0,35,0.00,,---,0.00,VWS V14.01,2013-03-31 20:48:00,
2013-03-31 15:54:00,58.4,29.4,29.96,NNW,333,9.0,20.0,33,0.00,,---,0.00,VWS V14.01,2013-03-31 20:54:00,
2013-03-31 16:01:00,58.2,30.0,29.95,West,264,10.0,20.0,34,0.00,,---,0.00,VWS V14.01,2013-03-31 21:01:00,
2013-03-31 16:07:00,58.2,29.3,29.95,WNW,283,10.0,18.0,33,0.00,,---,0.00,VWS V14.01,2013-03-31 21:07:00,
2013-03-31 16:13:00,58.7,29.7,29.95,NW,321,11.0,18.0,33,0.00,,---,0.00,VWS V14.01,2013-03-31 21:13:00,
2013-03-31 16:19:00,59.0,30.0,29.95,NW,307,8.0,18.0,33,0.00,,---,0.00,VWS V14.01,2013-03-31 21:19:00,
2013-03-31 16:25:00,58.6,29.6,29.95,WNW,288,11.0,18.0,33,0.00,,---,0.00,VWS V14.01,2013-03-31 21:25:00,
2013-03-31 16:31:00,58.1,29.9,29.95,WNW,300,7.0,18.0,34,0.00,,---,0.00,VWS V14.01,2013-03-31 21:31:00,
2013-03-31 16:37:00,58.3,29.3,29.95,NW,323,7.0,14.0,33,0.00,,---,0.00,VWS V14.01,2013-03-31 21:37:00,
2013-03-31 16:43:00,58.2,30.0,29.95,NW,315,11.0,16.0,34,0.00,,---,0.00,VWS V14.01,2013-03-31 21:43:00,
2013-03-31 16:50:00,57.6,29.5,29.95,NW,314,9.0,16.0,34,0.00,,---,0.00,VWS V14.01,2013-03-31 21:50:00,
2013-03-31 16:56:00,57.4,30.7,29.95,NW,315,3.0,16.0,36,0.00,,---,0.00,VWS V14.01,2013-03-31 21:56:00,
2013-03-31 17:01:00,58.0,30.5,29.95,WNW,292,5.0,16.0,35,0.00,,---,0.00,VWS V14.01,2013-03-31 22:01:00,
2013-03-31 17:06:00,58.5,31.0,29.95,North,360,8.0,13.0,35,0.00,,---,0.00,VWS V14.01,2013-03-31 22:06:00,
2013-03-31 17:12:00,57.5,30.1,29.95,NNW,327,10.0,14.0,35,0.00,,---,0.00,VWS V14.01,2013-03-31 22:12:00,
2013-03-31 17:18:00,56.6,30.0,29.95,NNW,336,14.0,14.0,36,0.00,,---,0.00,VWS V14.01,2013-03-31 22:18:00,
2013-03-31 17:24:00,56.1,29.5,29.94,WNW,301,5.0,14.0,36,0.00,,---,0.00,VWS V14.01,2013-03-31 22:24:00,
2013-03-31 17:30:00,56.1,29.5,29.94,NW,323,12.0,15.0,36,0.00,,---,0.00,VWS V14.01,2013-03-31 22:30:00,
2013-03-31 17:36:00,56.3,30.4,29.94,NW,323,8.0,12.0,37,0.00,,---,0.00,VWS V14.01,2013-03-31 22:36:00,
2013-03-31 17:42:00,56.4,30.5,29.94,West,275,2.0,12.0,37,0.00,,---,0.00,VWS V14.01,2013-03-31 22:42:00,
2013-03-31 17:48:00,56.7,30.1,29.94,WNW,290,1.0,12.0,36,0.00,,---,0.00,VWS V14.01,2013-03-31 22:48:00,
2013-03-31 17:55:00,56.4,29.1,29.94,NNE,23,9.0,13.0,35,0.00,,---,0.00,VWS V14.01,2013-03-31 22:55:00,
2013-03-31 18:01:00,54.7,27.6,29.94,NNE,25,10.0,13.0,35,0.00,,---,0.00,VWS V14.01,2013-03-31 23:01:00,
2013-03-31 18:07:00,53.9,27.6,29.94,NNE,13,5.0,12.0,36,0.00,,---,0.00,VWS V14.01,2013-03-31 23:07:00,
2013-03-31 18:13:00,53.2,27.6,29.94,NNE,13,3.0,12.0,37,0.00,,---,0.00,VWS V14.01,2013-03-31 23:13:00,
2013-03-31 18:19:00,52.7,27.8,29.94,North,355,9.0,12.0,38,0.00,,---,0.00,VWS V14.01,2013-03-31 23:19:00,
2013-03-31 18:25:00,52.4,26.9,29.94,North,355,9.0,12.0,37,0.00,,---,0.00,VWS V14.01,2013-03-31 23:25:00,
2013-03-31 18:30:00,52.2,28.0,29.95,NNE,17,9.0,12.0,39,0.00,,---,0.00,VWS V14.01,2013-03-31 23:30:00,
2013-03-31 18:37:00,51.8,26.4,29.95,NNE,33,6.0,14.0,37,0.00,,---,0.00,VWS V14.01,2013-03-31 23:37:00,
2013-03-31 18:43:00,51.4,26.0,29.94,NNE,20,12.0,14.0,37,0.00,,---,0.00,VWS V14.01,2013-03-31 23:43:00,
2013-03-31 18:50:00,51.2,26.5,29.95,North,5,6.0,14.0,38,0.00,,---,0.00,VWS V14.01,2013-03-31 23:50:00,
2013-03-31 18:56:00,51.3,26.6,29.95,NNE,19,7.0,14.0,38,0.00,,---,0.00,VWS V14.01,2013-03-31 23:56:00,
2013-03-31 19:02:00,51.0,27.5,29.95,NNW,338,9.0,9.0,40,0.00,,---,0.00,VWS V14.01,2013-04-01 00:02:00,
2013-03-31 19:08:00,50.5,27.1,29.95,North,360,7.0,12.0,40,0.00,,---,0.00,VWS V14.01,2013-04-01 00:08:00,
2013-03-31 19:14:00,50.3,28.1,29.96,North,5,7.0,12.0,42,0.00,,---,0.00,VWS V14.01,2013-04-01 00:14:00,
2013-03-31 19:20:00,50.1,27.9,29.97,North,355,12.0,13.0,42,0.00,,---,0.00,VWS V14.01,2013-04-01 00:20:00,
2013-03-31 19:26:00,49.8,28.2,29.97,North,355,5.0,16.0,43,0.00,,---,0.00,VWS V14.01,2013-04-01 00:26:00,
2013-03-31 19:32:00,49.3,27.8,29.97,NNE,24,8.0,16.0,43,0.00,,---,0.00,VWS V14.01,2013-04-01 00:32:00,
2013-03-31 19:38:00,49.1,27.6,29.98,North,355,6.0,16.0,43,0.00,,---,0.00,VWS V14.01,2013-04-01 00:38:00,
2013-03-31 19:44:00,48.7,27.8,29.98,North,355,9.0,16.0,44,0.00,,---,0.00,VWS V14.01,2013-04-01 00:44:00,
2013-03-31 19:50:00,48.4,27.5,29.98,NNW,337,14.0,16.0,44,0.00,,---,0.00,VWS V14.01,2013-04-01 00:50:00,
2013-03-31 19:56:00,48.2,27.3,29.98,North,355,5.0,16.0,44,0.00,,---,0.00,VWS V14.01,2013-04-01 00:56:00,
2013-03-31 20:02:00,47.9,27.6,29.98,NNE,24,15.0,15.0,45,0.00,,---,0.00,VWS V14.01,2013-04-01 01:02:00,
2013-03-31 20:09:00,47.7,27.4,29.98,North,360,18.0,18.0,45,0.00,,---,0.00,VWS V14.01,2013-04-01 01:09:00,
2013-03-31 20:15:00,47.5,27.8,29.99,North,5,8.0,21.0,46,0.00,,---,0.00,VWS V14.01,2013-04-01 01:15:00,
2013-03-31 20:21:00,47.2,28.0,29.99,North,360,15.0,21.0,47,0.00,,---,0.00,VWS V14.01,2013-04-01 01:21:00,
2013-03-31 20:27:00,46.5,28.9,30.00,North,5,12.0,21.0,50,0.00,,---,0.00,VWS V14.01,2013-04-01 01:27:00,
2013-03-31 20:33:00,45.6,29.5,30.01,North,5,12.0,23.0,53,0.00,,---,0.00,VWS V14.01,2013-04-01 01:33:00,
2013-03-31 20:39:00,44.9,28.8,30.02,NNE,24,12.0,24.0,53,0.00,,---,0.00,VWS V14.01,2013-04-01 01:39:00,
2013-03-31 20:45:00,44.2,29.5,30.02,NNE,12,19.0,24.0,56,0.00,,---,0.00,VWS V14.01,2013-04-01 01:45:00,
2013-03-31 20:51:00,43.5,29.7,30.03,NNE,18,13.0,24.0,58,0.00,,---,0.00,VWS V14.01,2013-04-01 01:51:00,
2013-03-31 20:58:00,43.0,30.1,30.03,North,355,19.0,24.0,60,0.00,,---,0.00,VWS V14.01,2013-04-01 01:58:00,
2013-03-31 21:04:00,42.7,30.2,30.04,North,5,10.0,21.0,61,0.00,,---,0.00,VWS V14.01,2013-04-01 02:04:00,
2013-03-31 21:10:00,42.2,30.5,30.05,North,360,10.0,25.0,63,0.00,,---,0.00,VWS V14.01,2013-04-01 02:10:00,
2013-03-31 21:18:00,41.2,31.5,30.05,North,5,15.0,25.0,68,0.00,,---,0.00,VWS V14.01,2013-04-01 02:18:00,
2013-03-31 21:24:00,40.3,31.7,30.06,NNE,17,16.0,25.0,71,0.00,,---,0.00,VWS V14.01,2013-04-01 02:24:00,
2013-03-31 21:30:00,39.6,32.3,30.06,North,349,13.0,25.0,75,0.00,,---,0.00,VWS V14.01,2013-04-01 02:30:00,
2013-03-31 21:36:00,38.6,32.7,30.07,North,355,15.0,25.0,79,0.00,,---,0.00,VWS V14.01,2013-04-01 02:36:00,
2013-03-31 21:43:00,37.6,32.6,30.08,North,9,18.0,25.0,82,0.00,,---,0.00,VWS V14.01,2013-04-01 02:43:00,
2013-03-31 21:49:00,36.6,32.2,30.09,NNE,13,16.0,25.0,84,0.00,,---,0.00,VWS V14.01,2013-04-01 02:49:00,
2013-03-31 21:55:00,35.9,32.1,30.10,NNW,342,13.0,25.0,86,0.01,,---,0.01,VWS V14.01,2013-04-01 02:55:00,
2013-03-31 22:00:00,35.5,32.0,30.10,NNE,30,9.0,25.0,87,0.01,,---,0.01,VWS V14.01,2013-04-01 03:00:00,
2013-03-31 22:07:00,35.0,31.8,30.10,North,355,17.0,19.0,88,0.02,,---,0.02,VWS V14.01,2013-04-01 03:07:00,
2013-03-31 22:13:00,34.4,31.5,30.11,North,349,4.0,20.0,89,0.02,,---,0.02,VWS V14.01,2013-04-01 03:13:00,
2013-03-31 22:19:00,34.3,31.4,30.11,North,355,8.0,20.0,89,0.02,,---,0.02,VWS V14.01,2013-04-01 03:19:00,
2013-03-31 22:25:00,33.8,30.9,30.11,North,349,5.0,20.0,89,0.02,,---,0.02,VWS V14.01,2013-04-01 03:25:00,
2013-03-31 22:31:00,33.5,30.9,30.11,North,350,6.0,20.0,90,0.02,,---,0.02,VWS V14.01,2013-04-01 03:31:00,
2013-03-31 22:38:00,33.2,30.6,30.12,NNE,13,7.0,17.0,90,0.03,,---,0.03,VWS V14.01,2013-04-01 03:38:00,
2013-03-31 22:44:00,33.0,30.4,30.12,NNE,32,7.0,17.0,90,0.03,,---,0.03,VWS V14.01,2013-04-01 03:44:00,
2013-03-31 22:50:00,32.9,30.6,30.13,North,350,9.0,20.0,91,0.03,,---,0.03,VWS V14.01,2013-04-01 03:50:00,
2013-03-31 22:56:00,32.9,30.6,30.12,NNE,19,5.0,20.0,91,0.03,,---,0.03,VWS V14.01,2013-04-01 03:56:00,
2013-03-31 23:00:00,32.9,30.6,30.13,NNW,336,13.0,20.0,91,0.03,,---,0.03,VWS V14.01,2013-04-01 04:00:00,
2013-03-31 23:01:00,32.8,30.5,30.13,North,360,14.0,20.0,91,0.03,,---,0.03,VWS V14.01,2013-04-01 04:01:00,
2013-03-31 23:04:00,32.8,30.5,30.13,North,360,8.0,14.0,91,0.02,,---,0.03,VWS V14.01,2013-04-01 04:04:00,
2013-03-31 23:08:00,32.6,30.3,30.13,North,355,11.0,16.0,91,0.02,,---,0.03,VWS V14.01,2013-04-01 04:08:00,
2013-03-31 23:12:00,32.5,30.2,30.13,North,360,6.0,16.0,91,0.02,,---,0.03,VWS V14.01,2013-04-01 04:12:00,
2013-03-31 23:18:00,32.5,30.4,30.13,North,9,6.0,16.0,92,0.02,,---,0.03,VWS V14.01,2013-04-01 04:18:00,
2013-03-31 23:24:00,32.4,30.3,30.13,North,360,9.0,16.0,92,0.02,,---,0.03,VWS V14.01,2013-04-01 04:24:00,
2013-03-31 23:30:00,32.2,30.1,30.14,NNE,12,16.0,16.0,92,0.02,,---,0.03,VWS V14.01,2013-04-01 04:30:00,
2013-03-31 23:36:00,31.9,29.8,30.14,North,355,10.0,20.0,92,0.01,,---,0.03,VWS V14.01,2013-04-01 04:36:00,
2013-03-31 23:42:00,31.6,29.5,30.14,NNE,28,7.0,20.0,92,0.01,,---,0.03,VWS V14.01,2013-04-01 04:42:00,
2013-03-31 23:49:00,31.4,29.4,30.14,North,355,15.0,20.0,92,0.01,,---,0.03,VWS V14.01,2013-04-01 04:49:00,
2013-03-31 23:55:00,31.2,29.1,30.14,NNW,342,7.0,20.0,92,0.01,,---,0.03,VWS V14.01,2013-04-01 04:55:00,